FW7473 Weather Reports


time (UTC)temp
C
wind
direction
speed
KPH
gust
KPH
rain 1hr
cm
rain 24hr
cm
rain mn
cm
humidity
%
barometer
mb
20260506224434 17 138 0.0 0.0 0.00 0.00 0.00 85 1013.0
20260506223930 17 108 4.8 9.7 0.00 0.00 0.00 85 1012.7
20260506223420 17 94 4.8 8.0 0.00 0.00 0.00 84 1013.1
20260506222918 18 126 4.8 4.8 0.00 0.00 0.00 84 1012.7
20260506222414 18 87 6.4 9.7 0.00 0.00 0.00 83 1012.6
20260506221911 18 135 3.2 3.2 0.00 0.00 0.00 83 1012.4
20260506221409 18 96 4.8 4.8 0.00 0.00 0.00 82 1012.7
20260506220906 19 110 3.2 4.8 0.00 0.00 0.00 82 1012.7
20260506220401 19 106 3.2 4.8 0.00 0.00 0.00 81 1012.7
20260506215858 19 127 1.6 1.6 0.00 0.00 0.00 82 1012.7
20260506215354 19 113 4.8 4.8 0.00 0.00 0.00 82 1012.7
20260506214850 20 84 4.8 8.0 0.00 0.00 0.00 81 1012.7
20260506214347 20 41 4.8 8.0 0.00 0.00 0.00 79 1012.6
20260506213845 20 88 4.8 8.0 0.00 0.00 0.00 80 1012.6
20260506213342 21 117 3.2 4.8 0.00 0.00 0.00 79 1012.6
20260506212839 21 118 3.2 4.8 0.00 0.00 0.00 79 1012.3
20260506212335 21 93 8.0 11.3 0.00 0.00 0.00 79 1012.3
20260506211830 21 95 3.2 3.2 0.00 0.00 0.00 80 1012.2
20260506211326 21 67 4.8 8.0 0.00 0.00 0.00 81 1012.3
20260506210824 21 81 6.4 8.0 0.00 0.00 0.00 79 1012.4
20260506210321 22 98 4.8 4.8 0.00 0.00 0.00 78 1012.3
20260506205818 22 98 3.2 4.8 0.00 0.00 0.00 79 1012.4
20260506205313 22 85 6.4 14.5 0.00 0.00 0.00 79 1012.5
20260506204804 22 106 9.7 12.9 0.00 0.00 0.00 79 1012.5
20260506204302 22 111 3.2 3.2 0.00 0.00 0.00 80 1012.4
20260506203759 22 99 3.2 4.8 0.00 0.00 0.00 81 1012.4
20260506203257 22 103 4.8 4.8 0.00 0.00 0.00 80 1012.6
20260506202754 22 126 3.2 3.2 0.00 0.00 0.00 81 1012.6
20260506202251 22 105 3.2 3.2 0.00 0.00 0.00 81 1012.7
20260506201747 22 113 3.2 3.2 0.00 0.00 0.00 81 1012.7
20260506201244 23 124 4.8 8.0 0.00 0.00 0.00 81 1012.7
20260506200741 22 127 3.2 4.8 0.00 0.00 0.00 82 1012.4
20260506200237 22 152 3.2 3.2 0.00 0.00 0.00 83 1012.3
20260506195733 22 129 4.8 4.8 0.00 0.00 0.00 83 1012.5
20260506195230 22 106 6.4 9.7 0.00 0.00 0.00 83 1012.4
20260506194728 23 109 3.2 3.2 0.00 0.00 0.00 83 1012.1
20260506194224 23 87 4.8 4.8 0.00 0.00 0.00 83 1012.3
20260506193722 25 118 4.8 9.7 0.00 0.00 0.00 82 1012.0
20260506193218 25 113 1.6 3.2 0.00 0.00 0.00 80 1011.8
20260506192715 26 119 3.2 3.2 0.00 0.00 0.00 79 1011.9
20260506192212 26 118 1.6 1.6 0.00 0.00 0.00 79 1012.0
20260506191708 26 130 1.6 3.2 0.00 0.00 0.00 80 1012.1
20260506191204 26 123 1.6 3.2 0.00 0.00 0.00 80 1012.0
20260506190702 25 124 3.2 4.8 0.00 0.00 0.00 81 1012.3
20260506190159 26 122 0.0 1.6 0.00 0.00 0.00 81 1012.3
20260506185656 26 122 1.6 1.6 0.00 0.00 0.00 80 1012.3
20260506185152 25 122 1.6 1.6 0.00 0.00 0.00 81 1012.4
20260506184650 26 124 3.2 3.2 0.00 0.00 0.00 80 1012.4
20260506184147 25 119 4.8 4.8 0.00 0.00 0.00 79 1012.1
20260506183643 26 119 3.2 3.2 0.00 0.00 0.00 79 1012.1
20260506183139 25 132 1.6 1.6 0.00 0.00 0.00 79 1012.4
20260506182637 24 116 6.4 9.7 0.00 0.00 0.00 81 1012.4
20260506182134 23 128 3.2 4.8 0.00 0.00 0.00 82 1012.6
20260506181632 23 96 4.8 4.8 0.00 0.00 0.00 83 1012.5
20260506181129 24 110 3.2 4.8 0.00 0.00 0.00 82 1012.2
20260506180626 23 123 1.6 1.6 0.00 0.00 0.00 82 1012.3
20260506180122 23 106 4.8 4.8 0.00 0.00 0.00 83 1012.4
20260506175618 23 126 1.6 1.6 0.00 0.00 0.00 82 1012.4
20260506175114 23 125 3.2 3.2 0.00 0.00 0.00 83 1012.5
20260506174614 22 142 1.6 1.6 0.00 0.00 0.00 84 1012.4
20260506174110 22 138 0.0 1.6 0.00 0.00 0.00 84 1012.6
20260506173608 22 137 1.6 1.6 0.00 0.00 0.00 86 1012.4
20260506173104 22 136 1.6 4.8 0.00 0.00 0.00 86 1012.4
20260506172602 22 139 1.6 1.6 0.00 0.00 0.00 85 1012.5
20260506172057 21 119 6.4 9.7 0.00 0.00 0.00 86 1012.6
20260506171555 21 153 1.6 3.2 0.00 0.00 0.00 86 1012.7
20260506171053 21 118 1.6 3.2 0.00 0.00 0.00 87 1012.6
20260506170550 21 144 1.6 3.2 0.00 0.00 0.00 87 1012.6
20260506170047 21 120 4.8 8.0 0.00 0.00 0.00 88 1012.5
20260506165546 21 125 6.4 11.3 0.00 0.00 0.00 88 1012.5
20260506165041 20 139 1.6 1.6 0.00 0.00 0.00 89 1012.9
20260506164538 20 105 3.2 8.0 0.00 0.00 0.00 92 1012.9
20260506164036 18 97 3.2 3.2 0.00 0.00 0.00 93 1013.0
20260506163532 18 118 1.6 3.2 0.00 0.00 0.00 93 1013.5
20260506163027 19 24 4.8 4.8 0.00 0.00 0.00 93 1013.5
20260506162524 19 112 6.4 11.3 0.00 0.00 0.00 93 1013.3
20260506162021 20 11 6.4 9.7 0.00 0.00 0.00 92 1013.7
20260506161519 21 84 4.8 8.0 0.00 0.00 0.00 91 1013.8
20260506161015 22 357 6.4 8.0 0.00 0.00 0.00 89 1013.5
20260506160513 25 143 3.2 4.8 0.00 0.00 0.00 88 1013.3
20260506160010 25 137 0.0 0.0 0.00 0.00 0.00 93 1012.8
20260506155508 25 151 0.0 0.0 0.00 0.00 0.00 93 1012.8
20260506153640 25 142 0.0 0.0 0.00 0.00 0.00 93 1012.7
20260506153137 25 141 0.0 0.0 0.00 0.00 0.00 93 1012.6
20260506152634 25 142 0.0 0.0 0.00 0.00 0.00 93 1012.5
20260506152132 25 141 0.0 0.0 0.00 0.00 0.00 93 1012.1
20260506151630 25 143 0.0 0.0 0.00 0.00 0.00 93 1012.3
20260506151127 25 151 0.0 0.0 0.00 0.00 0.00 93 1012.0
20260506150624 25 153 0.0 0.0 0.00 0.00 0.00 93 1012.0
20260506150120 25 153 0.0 0.0 0.00 0.00 0.00 93 1011.8
20260506145618 25 148 0.0 0.0 0.00 0.00 0.00 94 1011.8
20260506145114 25 146 0.0 0.0 0.00 0.00 0.00 94 1011.9
20260506144611 25 151 0.0 0.0 0.00 0.00 0.00 94 1011.7
20260506144108 24 151 0.0 0.0 0.00 0.00 0.00 94 1011.8
20260506143606 24 149 0.0 1.6 0.00 0.00 0.00 94 1011.8
20260506143104 24 144 0.0 1.6 0.00 0.00 0.00 94 1011.3
20260506142602 24 151 3.2 3.2 0.00 0.00 0.00 94 1011.2
20260506142100 24 162 0.0 1.6 0.00 0.00 0.00 95 1011.1
20260506141557 23 149 0.0 0.0 0.00 0.00 0.00 95 1011.2
20260506141055 23 153 0.0 0.0 0.00 0.00 0.00 95 1011.4
20260506140552 23 153 0.0 0.0 0.00 0.00 0.00 95 1011.8
20260506140050 23 153 0.0 0.0 0.00 0.00 0.00 96 1011.4
20260506135546 23 153 0.0 0.0 0.00 0.00 0.00 96 1011.4
20260506135042 23 148 0.0 0.0 0.00 0.00 0.00 97 1011.1
20260506134539 23 152 0.0 1.6 0.00 0.00 0.00 97 1010.6
20260506134035 23 143 0.0 0.0 0.00 0.00 0.00 97 1010.7
20260506133532 23 142 0.0 0.0 0.00 0.00 0.00 97 1010.9
20260506133029 23 156 0.0 0.0 0.00 0.00 0.00 97 1010.5
20260506132526 23 151 0.0 1.6 0.00 0.00 0.00 98 1010.8
20260506132024 23 148 0.0 0.0 0.00 0.00 0.00 98 1010.6
20260506131521 23 149 0.0 0.0 0.00 0.00 0.00 98 1010.9
20260506131017 23 145 0.0 0.0 0.00 0.00 0.00 98 1010.7
20260506130514 23 146 0.0 1.6 0.00 0.00 0.00 98 1010.5
20260506130012 23 149 0.0 0.0 0.00 0.00 0.00 98 1010.5
20260506125510 23 144 0.0 1.6 0.00 0.00 0.00 98 1010.3
20260506125007 23 146 0.0 0.0 0.00 0.00 0.00 98 1010.2
20260506124505 23 147 0.0 0.0 0.00 0.00 0.00 98 1010.4
20260506124003 23 151 0.0 0.0 0.00 0.00 0.00 98 1010.4
20260506123500 23 151 0.0 0.0 0.00 0.00 0.00 98 1010.4
20260506122958 23 148 0.0 0.0 0.00 0.00 0.00 98 1010.4
20260506122454 23 146 0.0 0.0 0.00 0.00 0.00 98 1010.3
20260506121953 23 152 0.0 0.0 0.00 0.00 0.00 98 1010.4
20260506121450 23 143 0.0 0.0 0.00 0.00 0.00 98 1010.6
20260506120946 23 149 0.0 0.0 0.00 0.00 0.00 98 1010.4
20260506120444 23 152 0.0 0.0 0.00 0.00 0.00 97 1010.4
20260506115941 23 149 0.0 0.0 0.00 0.00 0.00 97 1010.3
20260506115439 23 154 0.0 0.0 0.00 0.00 0.00 97 1010.4
20260506114937 23 148 0.0 0.0 0.00 0.00 0.00 97 1010.3
20260506114434 23 148 0.0 0.0 0.00 0.00 0.00 97 1010.4
20260506113933 23 148 0.0 0.0 0.00 0.00 0.00 97 1010.4
20260506113430 23 148 0.0 0.0 0.00 0.00 0.00 97 1010.4
20260506112926 23 150 0.0 0.0 0.00 0.00 0.00 97 1010.3
20260506112424 23 151 0.0 0.0 0.00 0.00 0.00 97 1010.4
20260506111921 23 148 0.0 0.0 0.00 0.00 0.00 97 1010.2
20260506111419 23 143 0.0 0.0 0.00 0.00 0.00 97 1010.2
20260506110916 23 148 0.0 0.0 0.00 0.00 0.00 97 1010.2
20260506110414 23 153 0.0 0.0 0.00 0.00 0.00 97 1010.1
20260506105910 23 152 0.0 0.0 0.00 0.00 0.00 97 1010.2
20260506105406 23 141 0.0 0.0 0.00 0.00 0.00 97 1010.2
20260506104904 23 151 0.0 0.0 0.00 0.00 0.00 97 1010.0
20260506104402 23 151 0.0 0.0 0.00 0.00 0.00 97 1009.8
20260506103859 23 166 1.6 1.6 0.00 0.00 0.00 97 1009.8
20260506103357 23 156 4.8 4.8 0.00 0.00 0.00 97 1009.4
20260506102854 23 150 0.0 0.0 0.00 0.00 0.00 97 1009.5
20260506102352 23 151 1.6 1.6 0.00 0.00 0.00 97 1009.8
20260506101848 23 153 0.0 1.6 0.00 0.00 0.00 97 1009.4
20260506101344 23 145 0.0 1.6 0.00 0.00 0.00 97 1009.3
20260506100843 23 152 0.0 0.0 0.00 0.00 0.00 97 1009.4
20260506100341 23 159 1.6 1.6 0.00 0.00 0.00 97 1009.4
20260506095839 23 151 0.0 0.0 0.00 0.00 0.00 97 1009.5
20260506095336 23 158 1.6 1.6 0.00 0.00 0.00 97 1009.3
20260506094832 23 151 1.6 1.6 0.00 0.00 0.00 97 1009.4
20260506094331 23 166 1.6 1.6 0.00 0.00 0.00 97 1009.2
20260506093829 23 165 4.8 4.8 0.00 0.00 0.00 97 1009.1
20260506093326 23 149 0.0 0.0 0.00 0.00 0.00 97 1009.1
20260506092824 23 158 1.6 1.6 0.00 0.00 0.00 97 1009.1
20260506092321 23 156 4.8 8.0 0.00 0.00 0.00 97 1008.8
20260506091818 23 154 1.6 1.6 0.00 0.00 0.00 97 1009.0
20260506091316 23 148 4.8 4.8 0.00 0.00 0.00 97 1008.9
20260506090813 23 155 0.0 0.0 0.00 0.00 0.00 97 1009.0
20260506090310 23 163 1.6 1.6 0.00 0.00 0.00 97 1008.9
20260506085807 23 163 3.2 3.2 0.00 0.00 0.00 97 1008.8
20260506085305 23 151 0.0 0.0 0.00 0.00 0.00 97 1008.9
20260506084800 23 158 0.0 0.0 0.00 0.00 0.00 97 1008.7
20260506084256 23 149 0.0 1.6 0.00 0.00 0.00 96 1008.8
20260506083753 23 179 4.8 4.8 0.00 0.00 0.00 96 1009.1
20260506083251 23 170 3.2 4.8 0.00 0.00 0.00 96 1009.0
20260506082748 23 169 8.0 12.9 0.00 0.00 0.00 96 1008.9
20260506082243 23 156 1.6 1.6 0.00 0.00 0.00 96 1009.1
20260506081741 23 152 3.2 4.8 0.00 0.00 0.00 96 1008.8
20260506081238 23 158 3.2 3.2 0.00 0.00 0.00 96 1008.9
20260506080737 23 200 1.6 1.6 0.00 0.00 0.00 96 1009.1
20260506080233 23 166 6.4 9.7 0.00 0.00 0.00 96 1009.0
20260506073217 23 156 1.6 3.2 0.00 0.00 0.00 96 1009.3
20260506072714 23 159 1.6 1.6 0.00 0.00 0.00 96 1009.7
20260506072211 23 152 0.0 0.0 0.00 0.00 0.00 96 1009.4
20260506071708 23 162 1.6 3.2 0.00 0.00 0.00 96 1009.7
20260506071206 23 165 4.8 8.0 0.00 0.00 0.00 96 1009.4
20260506070703 23 153 0.0 1.6 0.00 0.00 0.00 96 1009.5
20260506070200 23 171 4.8 8.0 0.00 0.00 0.00 95 1009.5
20260506062137 23 165 6.4 9.7 0.00 0.00 0.00 95 1009.7
20260506061633 23 134 3.2 4.8 0.00 0.00 0.00 95 1009.5
20260506061131 23 148 1.6 1.6 0.00 0.00 0.00 95 1009.5
20260506060629 23 183 4.8 9.7 0.00 0.00 0.00 95 1009.5
20260506060126 23 191 3.2 4.8 0.00 0.00 0.00 95 1009.7
20260506051058 24 155 0.0 1.6 0.00 0.00 0.00 94 1009.8
20260506050555 24 165 6.4 8.0 0.00 0.00 0.00 93 1009.9
20260506045046 24 156 1.6 1.6 0.00 0.00 0.00 93 1009.5
20260506044544 24 182 6.4 11.3 0.00 0.00 0.00 93 1009.8
20260506044040 24 149 1.6 3.2 0.00 0.00 0.00 93 1010.0
20260506043537 24 159 4.8 9.7 0.00 0.00 0.00 93 1009.9
20260506043036 24 153 1.6 3.2 0.00 0.00 0.00 93 1009.8
20260506042535 24 180 1.6 3.2 0.00 0.00 0.00 93 1009.7
20260506042032 24 174 4.8 9.7 0.00 0.00 0.00 93 1009.5
20260506041531 24 161 4.8 4.8 0.00 0.00 0.00 93 1009.7
20260506041027 24 148 0.0 0.0 0.00 0.00 0.00 93 1009.7
20260506040525 24 149 3.2 3.2 0.00 0.00 0.00 93 1009.4
20260506040021 24 123 0.0 0.0 0.00 0.00 0.00 93 1009.4
20260506035518 24 153 1.6 3.2 0.00 0.00 0.00 93 1009.4
20260506035014 24 155 1.6 1.6 0.00 0.00 0.00 93 1009.3
20260506034512 25 169 1.6 3.2 0.00 0.00 0.00 93 1009.1
20260506034009 25 149 1.6 1.6 0.00 0.00 0.00 93 1009.3
20260506033506 25 161 1.6 1.6 0.00 0.00 0.00 93 1008.9
20260506033004 25 170 6.4 9.7 0.00 0.00 0.00 93 1009.0
20260506032501 25 167 3.2 3.2 0.00 0.00 0.00 92 1008.8
20260506031956 25 148 1.6 1.6 0.00 0.00 0.00 92 1008.9
20260506031455 25 147 0.0 0.0 0.00 0.00 0.00 92 1008.9
20260506030952 25 147 3.2 4.8 0.00 0.00 0.00 92 1008.8
20260506030450 25 155 0.0 0.0 0.00 0.00 0.00 92 1008.7
20260506025946 25 157 0.0 0.0 0.00 0.00 0.00 92 1008.8
20260506025443 25 162 4.8 8.0 0.00 0.00 0.00 92 1008.6
20260506024940 25 158 0.0 0.0 0.00 0.00 0.00 91 1008.4
20260506024437 25 180 1.6 8.0 0.00 0.00 0.00 91 1008.5
20260506023932 25 159 1.6 3.2 0.00 0.00 0.00 90 1008.3
20260506023429 25 146 0.0 0.0 0.00 0.00 0.00 90 1008.2
20260506022926 25 153 0.0 0.0 0.00 0.00 0.00 90 1008.1
20260506022424 25 158 0.0 0.0 0.00 0.00 0.00 89 1008.1
20260506021922 25 156 1.6 3.2 0.00 0.00 0.00 89 1007.9
20260506021419 25 163 0.0 0.0 0.00 0.00 0.00 89 1007.8
20260506020915 25 169 1.6 3.2 0.00 0.00 0.00 89 1007.8
20260506020414 25 152 1.6 3.2 0.00 0.00 0.00 88 1007.9
20260506015910 25 146 0.0 0.0 0.00 0.00 0.00 88 1007.7
20260506015408 25 165 1.6 3.2 0.00 0.00 0.00 88 1007.8
20260506014904 25 153 0.0 0.0 0.00 0.00 0.00 87 1007.6
20260506014401 25 156 0.0 0.0 0.00 0.00 0.00 87 1007.5
20260506013858 26 154 0.0 0.0 0.00 0.00 0.00 87 1007.6
20260506013356 26 152 0.0 0.0 0.00 0.00 0.00 86 1007.4
20260506012852 26 148 0.0 0.0 0.00 0.00 0.00 86 1007.5
20260506012349 26 152 0.0 0.0 0.00 0.00 0.00 86 1007.5
20260506011846 26 157 0.0 0.0 0.00 0.00 0.00 85 1007.4
20260506011343 26 151 0.0 0.0 0.00 0.00 0.00 85 1007.5
20260506010840 26 155 0.0 0.0 0.00 0.00 0.00 84 1007.8
20260506010338 26 149 0.0 0.0 0.00 0.00 0.00 84 1007.7
20260506005835 27 146 0.0 0.0 0.00 0.00 0.00 83 1007.5
20260506005331 27 158 0.0 0.0 0.00 0.00 0.00 83 1007.5
20260506004827 27 158 0.0 0.0 0.00 0.00 0.00 83 1007.4
20260506004325 27 158 0.0 0.0 0.00 0.00 0.00 82 1007.4
20260506003821 27 150 0.0 0.0 0.00 0.00 0.00 82 1007.3
20260506003318 27 152 0.0 0.0 0.00 0.00 0.00 81 1007.2
20260506002814 27 148 0.0 0.0 0.00 0.00 0.00 81 1007.4
20260506002311 27 156 0.0 0.0 0.00 0.00 0.00 80 1007.3
20260506001806 27 159 1.6 4.8 0.00 0.00 0.00 80 1007.3
20260506001304 27 152 0.0 0.0 0.00 0.00 0.00 80 1007.0
20260506000800 27 145 0.0 0.0 0.00 0.00 0.00 80 1007.3
20260506000258 27 164 3.2 8.0 0.00 0.00 0.00 80 1007.3
20260505235755 27 141 0.0 0.0 0.00 0.00 0.00 80 1007.4
20260505235253 28 154 0.0 0.0 0.00 0.00 0.00 79 1007.0
20260505234749 28 172 4.8 4.8 0.00 0.00 0.00 79 1007.0
20260505234247 28 172 1.6 8.0 0.00 0.00 0.00 78 1007.1
20260505233743 28 160 3.2 4.8 0.00 0.00 0.00 78 1007.1
20260505233241 28 153 0.0 0.0 0.00 0.00 0.00 78 1007.1
20260505232738 28 152 0.0 0.0 0.00 0.00 0.00 78 1007.1
20260505232236 28 153 0.0 0.0 0.00 0.00 0.00 78 1007.0
20260505231732 28 192 4.8 8.0 0.00 0.00 0.00 78 1007.0
20260505231231 28 151 1.6 3.2 0.00 0.00 0.00 77 1007.0
20260505230729 28 158 0.0 0.0 0.00 0.00 0.00 78 1007.1
20260505230225 28 146 0.0 0.0 0.00 0.00 0.00 77 1007.0
20260505225722 28 153 0.0 0.0 0.00 0.00 0.00 77 1006.8
20260505225219 28 146 0.0 0.0 0.00 0.00 0.00 78 1006.8